#timestamp,LO_Frequency,Hit,StdDev 
1580878815.3,286046998.8,N
1580878835.1,286046999.2,N
1580878855.9,286047001.2,N
1580878875.7,286047000.0,N
1580878895.5,286047000.4,N
1580878915.4,286046998.1,N
1580878935.2,286047001.2,N
1580878955.0,286047000.8,N
1580878956.0,286047000.8,N
1580878975.8,286046999.1,N
1580878995.6,286046996.7,N
1580879015.5,286046999.5,N
1580879035.3,286046998.4,N
1580879055.1,286046998.3,N
1580879075.9,286046997.9,N
1580879095.7,286046995.2,N
1580879115.6,286046995.7,N
1580879135.4,286046999.3,N
1580879155.2,286046999.5,N
1580879175.1,286046997.9,N
1580879176.0,286046997.9,N
1580879195.8,286046999.6,N
1580879215.6,286046999.5,N
1580879235.5,286046996.6,N
1580879255.3,286046998.8,N
1580879275.2,286047003.3,N
1580879295.9,286047004.2,N
1580879315.7,286047002.2,N
1580879335.6,286047000.2,N
1580879355.4,286046999.7,N
1580879375.3,286046998.1,N
1580879395.1,286047000.5,N
1580879396.0,286047000.5,N
1580879415.8,286047001.2,N
1580879435.7,286047001.2,N
1580879455.5,286047001.2,N
1580879475.3,286047001.2,N
1580879495.2,286047000.7,N
1580879515.0,286046998.3,N
1580879515.9,286046998.3,N
1580879535.8,286047000.8,N
1580879555.6,286047000.4,N
1580879575.4,286047001.9,N
1580879595.3,286047005.1,N
1580879615.1,286047004.9,N
1580879635.9,286047009.0,Y
1580879655.7,286047005.4,P
1580879675.5,286047005.3,N
1580879695.4,286047006.8,N
1580879715.2,286047003.9,N
1580879735.1,286047003.9,N
1580879736.0,286047003.9,N
1580879755.8,286047004.3,N
1580879775.6,286047001.5,N
1580879795.5,286047005.7,N
1580879815.3,286047001.7,N
1580879835.1,286047005.8,N
1580879855.9,286047005.4,N
1580879875.7,286047006.3,Y
1580879895.6,286047002.5,P
1580879915.4,286046998.7,N
1580879935.2,286046996.0,N
1580879955.1,286046995.5,N
1580879956.0,286046995.5,N
1580879975.8,286046998.7,N
1580879995.6,286046997.0,N
1580880015.5,286046996.6,N
1580880035.3,286047000.8,N
1580880055.2,286046998.9,N
1580880075.9,286046999.2,N
1580880095.7,286046999.5,N
1580880115.6,286046998.7,N
1580880135.4,286046999.6,N
1580880155.2,286046999.4,N
1580880175.1,286046996.8,N
1580880176.0,286046996.8,N
1580880195.8,286046997.8,N
1580880215.7,286046996.2,N
1580880235.5,286046993.8,N
1580880255.3,286046993.7,N
1580880275.2,286046991.8,Y
1580880295.0,286046996.2,P
1580880295.9,286046996.2,P
1580880315.8,286046993.9,P
1580880335.6,286046995.9,N
1580880355.4,286046993.4,Y
1580880375.3,286046997.8,P
1580880395.1,286046999.6,N
1580880415.8,286046996.5,N
1580880435.7,286046999.5,N
1580880455.5,286046998.3,N
1580880475.4,286046998.9,N
1580880495.2,286046998.9,N
1580880515.0,286046998.2,N
1580880515.9,286046998.2,N
1580880535.8,286047002.3,N
1580880555.6,286047001.3,N
1580880575.5,286047005.6,Y
1580880595.3,286047003.8,P
1580880615.1,286047001.6,N
1580880635.9,286047002.0,N
1580880655.7,286047001.8,N
1580880675.5,286047000.3,N
1580880695.4,286047000.4,N
1580880715.2,286047000.4,N
1580880735.1,286047001.2,N
1580880736.0,286047001.2,N
1580880755.8,286047001.2,N
1580880775.6,286047002.5,N
1580880795.5,286047002.4,N
1580880815.3,286047000.4,N
1580880835.2,286047002.8,N
1580880855.9,286047001.2,N
1580880875.7,286047000.6,N
1580880895.6,286046999.7,N
1580880915.4,286046999.7,N
1580880935.2,286046999.9,N
1580880955.1,286047002.0,N
1580880956.0,286047002.0,N
1580880975.8,286047003.9,Y
1580880995.7,286047002.5,P
1580881015.5,286047001.6,N
1580881035.3,286047000.5,N
1580881055.2,286047000.3,N
1580881075.0,286047001.4,N
1580881075.9,286047001.4,N
1580881095.8,286047001.4,N
1580881115.6,286047001.6,N
1580881135.4,286047000.3,N
1580881155.3,286047000.6,N
1580881175.1,286047000.8,N
1580881195.8,286047000.1,N
1580881215.7,286047000.3,N
1580881235.5,286047001.6,N
1580881255.4,286047002.8,Y
1580881275.2,286046998.4,P
1580881295.0,286046998.7,N
1580881295.9,286046998.7,N
1580881315.8,286046997.0,N
1580881335.6,286046999.3,N
1580881355.4,286046999.0,N
1580881375.3,286046996.9,N
1580881395.1,286046999.2,N
1580881415.9,286046996.5,Y
1580881435.7,286046999.0,P
1580881455.5,286047000.5,P
1580881475.4,286047000.3,N
1580881495.2,286047002.1,N
1580881515.0,286047001.8,N
1580881516.0,286047001.8,N
1580881535.8,286047003.5,N
1580881555.6,286047005.2,Y
1580881575.5,286047004.1,P
1580881595.3,286047000.0,N
1580881615.1,286047000.7,N
1580881635.9,286047002.5,N
1580881655.7,286047001.2,N
1580881675.6,286047000.1,N
1580881695.4,286047000.6,N
1580881715.2,286047000.8,N
1580881735.1,286047001.1,N
1580881736.0,286047001.1,N
1580881755.8,286046998.3,N
1580881775.6,286046998.4,N
1580881795.5,286046998.4,N
1580881815.3,286046999.0,N
1580881835.2,286046996.7,N
1580881855.9,286046996.6,N
1580881875.7,286046998.8,N
1580881895.6,286047001.2,N
1580881915.4,286046998.8,N
1580881935.2,286046996.5,N
1580881955.1,286046998.7,N
1580881956.0,286046998.7,N
1580881975.8,286046998.6,N
1580881995.7,286046999.4,N
1580882015.5,286046998.7,N
1580882035.3,286046999.0,N
1580882055.2,286046998.4,N
1580882075.0,286047000.7,N
1580882075.9,286047000.7,N
1580882095.7,286047000.5,N
1580882115.6,286046998.1,N
1580882135.4,286046999.9,N
1580882155.3,286047001.0,N
1580882175.1,286046998.5,N
1580882176.0,286046998.5,N
1580882195.8,286046996.8,N
1580882215.7,286046997.0,N
1580882235.5,286046998.5,N
1580882255.3,286046998.3,N
1580882275.2,286046998.6,N
1580882295.0,286047000.6,N
1580882295.9,286047000.6,N
1580882315.8,286046998.6,N
1580882335.6,286046999.2,N
1580882355.4,286046998.5,N
1580882375.3,286047000.6,N
1580882395.1,286047000.3,N
